{"data":{"norad_id":66807,"intl_designator":"2025-278S","name":"STARLINK-36000","alt_names":[],"object_type":"PAYLOAD","status":"ACTIVE","operator":null,"country":"US","launch_date":"2025-12-01","launch_site_code":"AFETR","launch_vehicle":null,"mission":null,"orbit_class":"UNKNOWN","rcs_meters":null,"size_class":null,"mass_kg":null,"dimensions":null,"purposes":["comms"],"wikipedia_slug":null,"has_3d_model":false,"image_url":null,"decayed_at":null,"tle_current":{"epoch":"2026-05-25T00:22:10.521120Z","epoch_age_seconds":67742,"freshness":"FRESH","line1":"1 66807U 25278S   26145.01539955  .00025484  00000+0  93219-3 0  9995","line2":"2 66807  43.0004  43.1905 0001148 279.2326  80.8396 15.27587298 26889","mean_motion":15.27587298,"eccentricity":0.0001148,"inclination_deg":43.0004,"raan_deg":43.1905,"arg_perigee_deg":279.2326,"mean_anomaly_deg":80.8396,"bstar":0.00093219,"rev_number":2688,"period_min":94.266298357241,"perigee_km":482.23958163408,"apogee_km":483.81490494434,"semimajor_km":6861.1642432892,"source":"CELESTRAK","updated_at":"2026-05-25T13:38:21.330053Z"}}}